Weather Roundup
Issued by NWS Springfield, MO

Home | Current Version | Previous Version | Text Only | Print | Product List | Glossary On
Versions: 1 2 3 4 5 6 7 8 9 10 11 12 13 14 15 16 17 18 19 20 21 22 23 24 25 26 27 28 29 30 31 32 33 34 35 36 37 38 39 40 41 42 43 44 45 46 47 48 49 50
000
NZUS99 KSGF 250407
HRRSGF

HOURLY WEATHER
NATIONAL WEATHER SERVICE SPRINGFIELD MO
1100 PM CDT FRI MAR 24 2017

......SGF CWA......

CITY           SKY/WX    TMP DP  RH WIND       PRES   REMARKS
SPRINGFIELD    LGT RAIN  56  52  86 SE25      29.83F
JOPLIN         MOCLDY    57  54  89 SE8       29.79F
WEST PLAINS    RAIN      61  58  90 S6        29.93F FOG
ROLLA          HVY RAIN  57  57 100 SW10      29.94R FOG
OSAGE BEACH    LGT RAIN N/A N/A N/A S8        29.93S

......SURROUNDING SGF CWA......

CITY           SKY/WX    TMP DP  RH WIND       PRES   REMARKS
CHANUTE        RAIN      53  49  86 NW16G31   29.84R
PARSONS        CLOUDY    57  50  77 NW29      29.83R
COFFEYVILLE    CLOUDY    59  56  89 SE7       29.76F
EMPORIA        CLOUDY    51  51 100 NW10      29.83F
GROVE OK       CLOUDY    57  55  94 NW5       29.80S
ROGERS AR      CLOUDY    56  53  90 SE7       29.82S
SILOAM SPRINGS CLOUDY    57  54  88 SE8       29.80S
HARRISON AR    LGT RAIN  53  53 100 SE12      29.88F
NEAR YELLVILLE CLOUDY    55  50  82 SW3       29.94R

......KANSAS AND MISSOURI......

CITY           SKY/WX    TMP DP  RH WIND       PRES   REMARKS
KANSAS CTY INT CLOUDY    57  56  96 N6        29.80F
DOWNTOWN KC    CLOUDY    60  57  89 CALM      29.79F
COLUMBIA       LGT RAIN  57  57 100 SE10      29.91F FOG
SEDALIA        CLOUDY    60  48  64 SE22G30   29.80F
ST JOSEPH      CLOUDY    52  52 100 N21       29.84F
ST LOUIS       CLOUDY    69  57  65 SE15G22   29.94F
SPIRIT OF STL  MOCLDY    69  58  67 SE8G18    29.92S
KIRKSVILLE     CLOUDY    55  55 100 E7        29.89F
WICHITA        LGT RAIN  52  49  89 N13       29.86R
TOPEKA         LGT RAIN  54  54 100 N20G30    29.80F
OLATHE         CLOUDY    56  56 100 E5        29.79F

......TENNESSEE......

CITY           SKY/WX    TMP DP  RH WIND       PRES   REMARKS
MEMPHIS        MOCLDY    71  59  65 SE20G33   29.97F
NASHVILLE      MOCLDY    66  52  60 SE9       30.15F

......ARKANSAS.......

CITY           SKY/WX    TMP DP  RH WIND       PRES   REMARKS
FAYETTEVILLE   CLOUDY    56  54  93 S5        29.82S
FT SMITH       MOCLDY    58  54  86 NE8       29.80S
LITTLE ROCK    LGT RAIN  70  61  73 S23G37    29.86F

......OKLAHOMA.......

CITY           SKY/WX    TMP DP  RH WIND       PRES   REMARKS
TULSA          TSTM      62  53  72 SE7       29.76R
PONCA CITY     LGT RAIN  62  49  62 NW13G24   29.79R
MCALESTER      CLOUDY    64  57  78 S9G16     29.78S
OKLAHOMA CITY  LGT RAIN  56  49  77 W8        29.73R

......IOWA............

CITY           SKY/WX    TMP DP  RH WIND       PRES   REMARKS
DES MOINES     CLOUDY    44  42  93 NE18G26   29.97F
QUAD CITIES    LGT RAIN  56  54  93 N8        29.98F FOG

......ILLINOIS........

CITY           SKY/WX    TMP DP  RH WIND       PRES   REMARKS
QUINCY         CLOUDY    57  56  96 E12       29.92F
CHICAGO        CLOUDY    43  36  76 N15       30.07S




USA.gov is the U.S. government's official web portal to all federal, state and local government web resources and services.